Regional Weather Roundup
Issued by NWS

Home | Current Version | Previous Version | Graphics & Text | Print | Product List | Glossary Off
Versions: 1 2 3 4 5 6 7 8 9 10 11 12 13 14 15 16 17 18 19 20 21 22 23 24 25 26 27 28 29 30 31 32 33 34 35 36 37 38 39 40 41 42 43 44 45 46 47 48 49 50

000
ASUS43 KLOT 301708
RWRIL

ILLINOIS REGIONAL WEATHER ROUNDUP
NATIONAL WEATHER SERVICE CHICAGO/ROMEOVILLE IL
1200 PM CDT SAT APR 30 2016

NOTE: "FAIR" INDICATES FEW OR NO CLOUDS BELOW 12,000 FEET WITH NO
SIGNIFICANT WEATHER AND/OR OBSTRUCTIONS TO VISIBILITY.

* THESE STATIONS ARE NOT UNDER NWS QUALITY CONTROL. THEY ALSO MAY NOT
  REPORT WEATHER SUCH AS PRECIPITATION OR FOG.

ILZ001-002-007-009-015-016-024-301800-
NORTHWEST ILLINOIS

CITY           SKY/WX    TMP DP  RH WIND       PRES   REMARKS
MOLINE         RAIN      50  47  89 E22G31    29.84S FOG
STERLING*      CLOUDY    48  46  93 E25       29.89S
SAVANNA*       LGT RAIN  49  46  88 E14G22    29.91R
$$

ILZ003-004-008-010-011-017-018-301800-
NORTH CENTRAL ILLINOIS

CITY           SKY/WX    TMP DP  RH WIND       PRES   REMARKS
ROCKFORD       LGT RAIN  49  43  80 E20G28    29.98F
FREEPORT*      CLOUDY    47  44  89 E18G28    29.96F FOG
ROCHELLE*      LGT RAIN  47  44  89 E18G28    29.94F
DE KALB*       LGT RAIN  47  44  90 E20G25    29.96F
$$

ILZ005-006-012>014-019>023-301800-
NORTHEAST ILLINOIS

CITY           SKY/WX    TMP DP  RH WIND       PRES   REMARKS
CHICAGO-OHARE  LGT RAIN  45  40  82 E15G23    30.00F
CHICAGO-MIDWAY LGT RAIN  47  41  80 E18G25    30.00F
AURORA         LGT RAIN  48  44  86 E18G26    29.94F FOG
LANSING*       RAIN      46  43  90 E9        29.99F
JOLIET*        LGT RAIN  49  47  92 E17G23    29.94F
WAUKEGAN       LGT RAIN  44  41  89 E13G21    30.03F
DUPAGE AIRPORT LGT RAIN  46  41  82 E20       29.96F
KANKAKEE*      LGT RAIN  48  46  95 E20       29.93F
WHEELING       LGT RAIN  45  41  86 E9        30.03F FOG
MORRIS*        LGT RAIN  48  46  90 E20       29.91F
ROMEOVILLE*    LGT RAIN  47  44  89 E21       29.96F
NORTHERLY ISL    N/A     45  40  82 E15         N/A
NORTHERLY ISL    N/A     45  40  82 E15         N/A
$$

LMZ740>746-301800-
SOUTHERN LAKE MICHIGAN

STATION/POSITION SKY/WX   TEMP    WIND        PRES    VSBY  WAVE
                          AIR SEA DIR/SP/G                  HT/PER
                          (F)     (DEG/KT/KT) (MB)    (MI)  (FT/S)
SOUTHERN BUOY              43 40   70/ 12/ 14 1018.5F         1/ 3
HARRISON CRIB              45      90/ 14/ 15   N/A
BURNHAM HARBOR             45      80/ 15       N/A
CALUMET HARBOR             46      80/ 12/ 18 1016.5F
BURNS HARBOR               46     100/  9/ 17 1017.6S
MICHIGAN CITY              45      70/ 10/ 13   N/A
ST. JOSEPH                 48 47                N/A           1
$$

ILZ025>027-034>036-040-047-049-050-058-095>099-301800-
WEST-CENTRAL ILLINOIS

CITY           SKY/WX    TMP DP  RH WIND       PRES   REMARKS
QUINCY         LGT RAIN  58  56  93 SE21G28   29.71F
GALESBURG*     LGT RAIN  51  50  95 E16G25    29.80F
MACOMB*        CLOUDY    53  53  99 E16       29.79F
JACKSONVILLE*  LGT RAIN  58  56  93 SE15G23   29.77F
PITTSFIELD*    CLOUDY    59  58  96 SE10      29.76S
$$

ILZ028>032-037-038-041>044-048-051>054-059>061-301800-
CENTRAL ILLINOIS

CITY           SKY/WX    TMP DP  RH WIND       PRES   REMARKS
PONTIAC        LGT RAIN  51  51  98 E22G28    29.88F
BLOOMINGTON    LGT RAIN  54  54 100 SE17      29.87R FOG
DECATUR        LGT RAIN  57  54  89 SE18      29.83S FOG
PEORIA         LGT RAIN  54  51  90 E12       29.83F FOG
LACON*         RAIN      50  48  93 E14G20    29.86F
LINCOLN*       RAIN      56  56  97 SE14G23   29.82F
SPRINGFIELD    LGT RAIN  58  58 100 E14       29.79F FOG
TAYLORVILLE    CLOUDY    57  55  94 SE13      29.80F
$$

ILZ033-039-045-046-055>057-062-063-301800-
EAST-CENTRAL ILLINOIS

CITY           SKY/WX    TMP DP  RH WIND       PRES   REMARKS
CHAMPAIGN      LGT RAIN  55  55 100 E24G31    29.85F FOG
RANTOUL*       LGT RAIN  54  53  96 E14G22    29.87S
MATTOON        RAIN      57  54  89 SE9       29.85R FOG
PARIS*         LGT RAIN  56  55  97 SE13G21   29.88F
$$

ILZ079-100>102-301800-
SOUTHWEST ILLINOIS

CITY           SKY/WX    TMP DP  RH WIND       PRES   REMARKS
ALTON          CLOUDY    61  59  94 SE7       29.77F
BELLEVILLE     CLOUDY    63  63 100 SE8       29.76F
CAHOKIA*       CLOUDY    66  62  87 S8        29.75F
SPARTA*        CLOUDY    65  62  91 S7        29.80S
$$

ILZ064>066-069>071-074>076-080>082-084>086-088>090-092>094-301800-
SOUTH-CENTRAL ILLINOIS

CITY           SKY/WX    TMP DP  RH WIND       PRES   REMARKS
CARBONDALE     CLOUDY    66  61  84 S16       29.81S
CAIRO*         PTSUNNY   67  64  88 E6        29.82F
EFFINGHAM*     DRIZZLE   60  60 100 E14       29.85R
MARION         CLOUDY    66  64  94 SE12      29.85R
MT. VERNON     CLOUDY    61  55  82 E6        29.84F
CENTRALIA*     CLOUDY    62  61  97 SE9       29.81F
SALEM*         CLOUDY    61  59  92 SE7       29.83S
METROPOLIS*    CLOUDY    66  66  99 CALM      29.85F
$$

ILZ067-068-072-073-078-083-087-091-301800-
SOUTHEAST ILLINOIS

CITY           SKY/WX    TMP DP  RH WIND       PRES   REMARKS
LAWRENCEVILLE  LGT RAIN  60  32  34 SE12      29.90R
FLORA*         CLOUDY    61  60  94 SE13G18   29.85F
FAIRFIELD*     CLOUDY    60  60  99 SE5       29.85R
HARRISBURG*    CLOUDY    65  64  95 SE10      29.87R
ROBINSON*      LGT RAIN  57  56  97 SE10      29.90R
CARMI*         CLOUDY    63  62  97 SE13      29.87S
$$

ABBREVIATIONS USED IN REMARKS
   TC - TEMPERATURE IN CELSIUS
  WCI - WIND CHILL INDEX
   HX - HEAT INDEX
  VSB - VISIBILITY
$$




USA.gov is the U.S. government's official web portal to all federal, state and local government web resources and services.